This is the latest recevied weather packets stored in our database for station/object WD4ITN. If no packets are shown the sender has not sent any weather packets the latest 10 day(s).
| Time | Temp. | Humidity | Pressure | Rain* | Wind** | Luminosity | Snow |
|---|---|---|---|---|---|---|---|
| 1787945303 | 25.56° C | 60% | 1018.8 hPa | 0.25 mm | - | - | - |
| 1787945005 | 25.56° C | 61% | 1018.7 hPa | 0.25 mm | - | - | - |
| 1787944699 | 25.56° C | 61% | 1018.8 hPa | 0.25 mm | - | - | - |
| 1787944399 | 25.56° C | 61% | 1018.8 hPa | 0.25 mm | - | - | - |
| 1787944095 | 25.56° C | 57% | 1018.7 hPa | 0.25 mm | - | - | - |
| 1787943798 | 25.56° C | 60% | 1018.8 hPa | 0.25 mm | - | - | - |
| 1787943496 | 25° C | 63% | 1018.8 hPa | 0.25 mm | - | - | - |
| 1787943198 | 25° C | 60% | 1018.8 hPa | 0.25 mm | - | - | - |
| 1787942895 | 25° C | 62% | 1018.8 hPa | 0.25 mm | - | - | - |
| 1787942591 | 25.56° C | 59% | 1018.9 hPa | 0.25 mm | - | - | - |
| 1787942312 | 25° C | 63% | 1018.9 hPa | 0.25 mm | - | - | - |
| 1787942003 | 25° C | 66% | 1019 hPa | 0.25 mm | - | - | - |
| 1787941699 | 24.44° C | 62% | 1019.1 hPa | 0.25 mm | - | - | - |
| 1787941397 | 25° C | 61% | 1019 hPa | 0.25 mm | - | - | - |
| 1787941113 | 25.56° C | 60% | 1019 hPa | 0.25 mm | - | - | - |
| 1787940813 | 26.11° C | 63% | 1019.1 hPa | 0.25 mm | - | - | - |
| 1787940501 | 25.56° C | 59% | 1019.1 hPa | 0.25 mm | - | - | - |
| 1787940200 | 25.56° C | 59% | 1019.1 hPa | 0.25 mm | - | - | - |
| 1787939897 | 25° C | 59% | 1019.2 hPa | 0.25 mm | - | - | - |
| 1787939598 | 24.44° C | 67% | 1019.2 hPa | 0.25 mm | - | - | - |
| 1787939315 | 24.44° C | 65% | 1019.1 hPa | 0.25 mm | - | - | - |
| 1787939012 | 25° C | 63% | 1019.1 hPa | 0.25 mm | - | - | - |
| 1787938697 | 26.11° C | 64% | 1019.1 hPa | 0.25 mm | - | - | - |
| 1787938396 | 25.56° C | 61% | 1019.1 hPa | 0.25 mm | - | - | - |
| 1787938096 | 25.56° C | 62% | 1019.1 hPa | 0.25 mm | - | - | - |
* Rain since midnight (hover to see other rain measurements)
** Current wind speed in m/s (hover to see current wind gust speed)